Location: Artiguedieu
(43.5000°N, 0.5454°E)
Time: 09:50:34
(UTC+00:00)

Vanguard 1 Rocket - Pass Details

Date: 28 July 2021
Orbit: 650 x 4226 km, 34.3° (Epoch: 24 September)

Event Time Altitude Azimuth Distance (km) Brightness Sun altitude
Rises 16:36:35 0° 269° (W) 4,201 12.1 28.6°
Reaches altitude 10° 16:41:22 10° 245° (WSW) 2,669 11.0 27.7°
Maximum altitude 16:44:14 14° 216° (SW) 2,140 9.9 27.2°
Drops below altitude 10° 16:46:41 10° 185° (S) 2,203 9.5 26.8°
Sets 16:49:56 0° 157° (SSE) 2,968 9.8 26.2°
